Tracking 19242 objects as of 18-Sep-2018
HD Live streaming from Space Station
objects crossing your sky now

FENGYUN 1C DEB

Track FENGYUN 1C DEB now!
10-day predictions


NORAD ID: 30936
Int'l Code: 1999-025BAA
Perigee: 802.4 km
Apogee: 873.2 km
Inclination: 98.9 °
Period: 101.5 minutes
Semi major axis: 7208 km
RCS: 0.0141 m2 (small)
Launch date: May 10, 1999
Source: People's Republic of China (PRC)
Launch site: Taiyaun Space Center, China (TSC)

Note: This is SATELLITE DEBRIS
aabbcc
Your satellite tracking list
Your tracking list is empty




NASA's NSSDC Master Catalog

Two Line Element Set (TLE):
1 30936U 99025BAA 18260.57901212 +.00000174 +00000-0 +10484-3 0  9992
2 30936 098.8773 290.8362 0049125 341.0093 147.8154 14.18435388596247
Source of the keplerian elements: AFSPC